KSLV-II R/B, 56750

Orbit data source: Space-Track

KSLV-II R/B, 56750 is space debris in SSO originally from a launch on Thu, 25 May 2023 UTC launched from the Naro Space Center, South Korea (NSC). Debris objects in space refer to the collection of defunct objects orbiting the Earth. Examples of debris include non-operational satellites, rocket bodies, and fragments generated from explosions, collisions, or faulty payload assembly.

Loading next visibility...
Identifier
56750, 2023-072H
Orbit
SSO
Last TLE update
1 day ago
Origin
Manufacturer
KARI
Mission
Spacecraft
Bus & Motor
Unknown
Mass
1,250 kg wet, 1,250 kg dry
Launch date (UTC)
2023-05-25 (2 years ago)
Launch vehicle
Unknown
Launch site
Naro Space Center, South Korea (NSC)
Object type
Payload
Rocket body
Debris
Shape & HBR
Cyl, 3.6 m
Radar Cross Section
3.600 m², Large (>1 m²)

Expand to show TLE details & history

TLE from 1 day ago
0 KSLV-II R/B
1 56750U 23072H   25125.78252886  .00008250  00000-0  30291-3 0  9991
2 56750  97.5201 322.7208 0027407 329.8878  30.0784 15.27848004108053
Epoch: 2025-05-05T18:46Z
Definitive object data (Epoch: 2025-05-05T18:46:50.493Z)
Latitude
-0.00003°
Longitude
177.11928°
Altitude
469.083 km
Speed
7.641 km/s
True Right ascension
21h 30m 52s
True Declination
0° 00' 00"
Sunlit
Object was in daylight at TLE epoch
Visualization TLE readout
Latitude
67.59763°
Longitude
17.03192°
Altitude
509.475 km
Speed
7.607 km/s
Apparent Right ascension
22h 33m 09s
Apparent Declination
45° 03' 03"
Sunlit
Object is in daylight
Visualization observer readout
Local Sidereal Time
10:42:29
Azimuth
1.654° NNE
Elevation
-5.007°
Doppler factor
1
Orbital elements
Apogee altitude
498.001 km
Perigee altitude
460.413 km
Semi-major axis
6,857.344 km
Eccentricity
0.0027407
Inclination
97.5201°
RAAN
322.7208°
Arg. of periapsis
329.8878°
True anomaly
30.23627°
Mean anomaly
30.0784°
Eccentric anomaly
30.15729°
Mean motion
3.82216 °/min
BSTAR
0.00030291
Orbital period
94.19 mins
Loading maneuver chart data...
Loading SW <> Apogee altitude chart data...
Loading historical data...
Loading historical data...
Loading historical data...
Loading historical data...
Loading historical data...
Loading historical data...
Loading historical data...

KSLV-II R/B Visibility forecast

Observer location: undefined°, undefined°

Span
Click to sort rows by Start time (UTC) header in descending order
Start Az.
Max El. time (UTC)
Max El. Az.
Max El.
End time (UTC)
End Az.
5 mins2025-05-07 02:46:09.058Z340.866° N2025-05-07 02:49:09.058Z285.364° WNW20.047°2025-05-07 02:51:09.058Z246.716° WSW
5 mins2025-05-07 13:21:09.058Z183.646° SSW2025-05-07 13:23:09.058Z225.921° WSW38.68°2025-05-07 13:26:09.058Z336.137° NNW
5 mins2025-05-08 02:22:09.058Z344.953° N2025-05-08 02:24:09.058Z277.714° WNW34.3°2025-05-08 02:27:09.058Z215.754° SW
|